Location: Casilda
(33.0440°S, 61.1680°W)
Time: 20:09:47
(UTC-03:00)

ISS - Pass Details

Date: 27 January 2021
Orbit: 417 x 422 km, 51.6° (Epoch: 26 February)

Event Time Altitude Azimuth Distance (km) Brightness Sun altitude
Exits shadow 03:48:18 23° 121° (ESE) 948 -1.4 -27.2°
Drops below altitude 10° 03:49:47 10° 127° (SE) 1,521 0.0 -27.0°
Sets 03:51:54 0° 131° (SE) 2,391 1.4 -26.7°
